Regional Weather Roundup
Issued by NWS

Home | Current Version | Previous Version | Graphics & Text | Print | Product List | Glossary On
Versions: 1 2 3 4 5 6 7 8 9 10 11 12 13 14 15 16 17 18 19 20 21 22 23 24 25 26 27 28 29 30 31 32 33 34 35 36 37 38 39 40 41 42 43 44 45 46 47 48 49 50
804
ASUS43 KDMX 050006
RWRIA

WEATHER ROUNDUP FOR IOWA
NATIONAL WEATHER SERVICE DES MOINES IA
600 PM CST SUN DEC 04 2016

NOTE: "FAIR" INDICATES FEW OR NO CLOUDS BELOW 12,000 FEET WITH NO
SIGNIFICANT WEATHER AND/OR OBSTRUCTIONS TO VISIBILITY.

* - THESE STATIONS ARE NOT NWS STATIONS...THUS NOT UNDER NWS
QUALITY CONTROL.  THEY ALSO DO NOT REPORT WEATHER SUCH
AS PRECIPITATION OR FOG.

IAZ001>003-012>014-020>022-031>034-043>046-050100-
   NORTHWEST IOWA

CITY           SKY/WX    TMP DP  RH WIND       PRES   REMARKS
CARROLL *      CLEAR     34  34 100 SW13      29.87S WCI  25
CHEROKEE *     CLEAR     36  35  99 CALM      29.85R
DENISON *      CLEAR     36  34  93 SW6       29.86S WCI  31
LE MARS *      CLEAR     37  30  75 CALM      29.85S
ORANGE CITY *  CLEAR     34  30  86 CALM      29.83S
SHELDON *      CLEAR     36  34  93 SW5       29.81S WCI  32
SIOUX CITY     CLEAR     38  30  73 S3        29.85S
6HR MIN TEMP:  37; 6HR MAX TEMP:  51;

SPENCER        CLEAR     31  29  92 SW7       29.83R WCI  24
6HR MIN TEMP:  31; 6HR MAX TEMP:  46;

STORM LAKE *   CLEAR     34  32  93 SW8       29.85R WCI  27
$$

IAZ055>058-069>071-079>083-090>094-050100-
   SOUTHWEST IOWA

CITY           SKY/WX    TMP DP  RH WIND       PRES   REMARKS
ATLANTIC *     CLEAR     32  32 100 SW7       29.91R WCI  26
AUDUBON *      CLEAR     36  32  87 SW7       29.90S WCI  30
CLARINDA *       N/A     36  36 100 S8        29.96R WCI  29
COUNCIL BLFS * CLEAR     36  34  93 SW13      29.91R WCI  27
CRESTON *      CLEAR     34  34 100 SW9       29.93R FOG     WCI  26
HARLAN  *      CLEAR     34  34 100 S6        29.93S WCI  29
LAMONI         MOCLDY    36  33  89 SW12      29.95R WCI  28
6HR MIN TEMP:  34; 6HR MAX TEMP:  39;

RED OAK *      CLEAR     34  34 100 SW7       29.94R WCI  28
SHENANDOAH *   CLEAR     36  34  93 S7        29.95R WCI  30
$$

IAZ047>049-059>061-072>074-084-050100-
   CENTRAL IOWA

CITY           SKY/WX    TMP DP  RH WIND       PRES   REMARKS
AMES           CLEAR     32  32 100 S5        29.89R FOG     WCI  27
6HR MIN TEMP:  32; 6HR MAX TEMP:  34;

ANKENY *       CLEAR     34 N/A N/A S5        29.91S WCI  30
BOONE *        CLEAR     32  32 100 SW8       29.87S FOG     WCI  25
CHARITON *       N/A     36  34  93 SW9       29.94R WCI  29
DES MOINES     CLEAR     36  32  85 SW9       29.91R WCI  29
6HR MIN TEMP:  35; 6HR MAX TEMP:  39;

GRINNELL*      CLOUDY    33  32  95 W12       29.90S WCI  25
KNOXVILLE *    CLOUDY    36  32  87 SW7       29.91R WCI  30
MARSHALLTOWN   CLOUDY    33  31  92 SW12      29.88S WCI  24
6HR MIN TEMP:  33; 6HR MAX TEMP:  34; 6HR PCP:  0.03;

NEWTON *       CLOUDY    34  32  93 SW9       29.90S FOG     WCI  26
PELLA *        CLOUDY    37  33  88 W9        29.93R WCI  30
PERRY *          N/A     33  33  99 S5        29.89S FOG     WCI  29
$$

IAZ004>006-015-016-023>025-035-036-050100-
   NORTH CENTRAL IOWA

CITY           SKY/WX    TMP DP  RH WIND       PRES   REMARKS
ALGONA *       CLEAR     34  34 100 SW12      29.83S FOG     WCI  25
CLARION *      CLOUDY    34  34 100 SW9       29.86S WCI  26
ESTHERVILLE    CLEAR     33  31  92 W9        29.81S WCI  25
6HR MIN TEMP:  33; 6HR MAX TEMP:  43;

FORT DODGE *   CLEAR     34  28  80 S8        29.87S WCI  27
MASON CITY     CLOUDY    34  32  92 SW12      29.85S WCI  25
6HR MIN TEMP:  33; 6HR MAX TEMP:  34;

FOREST CITY *  CLOUDY    36  36 100 SW8       29.82F WCI  29
WEBSTER CITY * PTCLDY    32  32 100 S8        29.86R WCI  25
IOWA FALLS *   CLOUDY    33  32  96 SW12      29.89R WCI  24
$$

IAZ007>011-017>019-026>030-037>042-050>054-066-050100-
   NORTHEAST IOWA

CITY           SKY/WX    TMP DP  RH WIND       PRES   REMARKS
CEDAR RAPIDS   CLOUDY    33  33 100 W5        29.89S WCI  29
6HR MIN TEMP:  32; 6HR MAX TEMP:  33; 6HR PCP:  0.04;

CHARLES CITY * CLOUDY    34  32  93 SW9       29.86S WCI  26
CLINTON *      CLOUDY    31  30  96 S6        29.91F FOG     WCI  25
DECORAH *      CLOUDY    32  30  93 VRB7G13   29.83F WCI  26
DUBUQUE        FOG       31  31 100 SW8       29.87S VSB 1   WCI  23
6HR MIN TEMP:  30; 6HR MAX TEMP:  31; 6HR PCP:  0.13;

MONTICELLO *   CLOUDY    34  32  93 SW6       29.89S FOG     WCI  29
OELWEIN *      CLOUDY    32  32 100 W10G16    29.88R WCI  24
WATERLOO       CLOUDY    33  30  88 W7        29.88S WCI  27
6HR MIN TEMP:  33; 6HR MAX TEMP:  34; 6HR PCP: TRACE;

$$

IAZ064-065-067-068-078-050100-
   EAST CENTRAL IOWA

CITY           SKY/WX    TMP DP  RH WIND       PRES   REMARKS
DAVENPORT      CLOUDY    32  31  96 SW8       29.91S FOG     WCI  25
6HR MIN TEMP:  31; 6HR MAX TEMP:  32; 6HR PCP:  0.12;

IOWA CITY      CLOUDY    34  32  92 SW5       29.93R WCI  30
6HR MIN TEMP:  33; 6HR MAX TEMP:  34; 6HR PCP:  0.05;

MUSCATINE *    CLOUDY    34  32  93 SW7       29.93S FOG     WCI  28
QUAD CITIES    CLOUDY    34  31  88 SW6       29.91S FOG     WCI  29
6HR MIN TEMP:  32; 6HR MAX TEMP:  34; 6HR PCP:  0.17;

$$

IAZ062-063-075>077-085>089-095>099-050100-
   SOUTHEAST IOWA

CITY           SKY/WX    TMP DP  RH WIND       PRES   REMARKS
BURLINGTON     CLOUDY    32  32 100 SW6       29.94R FOG     WCI  26
6HR MIN TEMP:  32; 6HR MAX TEMP:  33; 6HR PCP:  0.08;

FAIRFIELD *    CLOUDY    34  32  93 W8        29.93R WCI  27
FORT MADISON * CLOUDY    34  34 100 CALM      29.95R
KEOKUK *       CLOUDY    34  34 100 SW6       29.94S WCI  29
OSKALOOSA *    CLOUDY    34  32  94 SW7       29.92S WCI  28
CENTERVILLE *  CLOUDY    36  34  93 SW8       29.96R WCI  29
OTTUMWA        CLOUDY    35  31  85 SW6       29.93R WCI  30
6HR MIN TEMP:  33; 6HR MAX TEMP:  36; 6HR PCP: TRACE;

WASHINGTON *   CLOUDY    34  34 100 SW8       29.93S WCI  27
$$

ABBREVIATIONS USED IN REMARKS
   TC - TEMPERATURES IN CELSIUS
  WCI - WIND CHILL INDEX
   HX - HEAT INDEX
  VSB - VISIBILITY
$$





USA.gov is the U.S. government's official web portal to all federal, state and local government web resources and services.